Year,Month,Day,Hour,Minute,Value (Times are PST for temperature in C)
2011,10,12,10,43,11.40
2011,10,12,10,44,11.40
2011,10,12,10,45,11.40
2011,10,12,10,46,11.40
2011,10,12,10,47,11.50
2011,10,12,10,48,11.50
2011,10,12,10,49,11.50
2011,10,12,10,50,11.50
2011,10,12,10,51,11.50
2011,10,12,10,52,11.50
2011,10,12,10,53,11.40
2011,10,12,10,54,11.40
2011,10,12,10,55,11.50
2011,10,12,10,56,11.50
2011,10,12,10,57,11.50
2011,10,12,10,58,11.60
2011,10,12,10,59,11.60
2011,10,12,11,00,11.70
2011,10,12,11,01,11.80
2011,10,12,11,02,11.90
2011,10,12,11,03,12.00
2011,10,12,11,04,12.10
2011,10,12,11,05,12.20
2011,10,12,11,06,12.30
2011,10,12,11,07,12.40
2011,10,12,11,08,12.50
2011,10,12,11,09,12.60
2011,10,12,11,10,12.70
2011,10,12,11,11,12.70
2011,10,12,11,12,12.80
2011,10,12,11,13,12.80
2011,10,12,11,14,12.80
2011,10,12,11,15,12.80
2011,10,12,11,16,12.80
2011,10,12,11,17,12.80
2011,10,12,11,18,12.80
2011,10,12,11,19,12.90
2011,10,12,11,20,12.90
2011,10,12,11,21,13.00
2011,10,12,11,22,13.10
2011,10,12,11,23,13.20
2011,10,12,11,24,13.30
2011,10,12,11,25,13.40
2011,10,12,11,26,13.50
2011,10,12,11,27,13.60
2011,10,12,11,28,13.60
2011,10,12,11,29,13.60
2011,10,12,11,30,13.50
2011,10,12,11,31,13.50
2011,10,12,11,32,13.40
2011,10,12,11,33,13.40
2011,10,12,11,34,13.40
2011,10,12,11,35,13.40
2011,10,12,11,36,13.40
2011,10,12,11,37,13.40
2011,10,12,11,38,13.40
2011,10,12,11,39,13.40
2011,10,12,11,40,13.40
2011,10,12,11,41,13.40
2011,10,12,11,42,13.40
2011,10,12,11,43,13.40
2011,10,12,11,44,13.50
2011,10,12,11,45,13.40
2011,10,12,11,46,13.40
2011,10,12,11,47,13.40
2011,10,12,11,48,13.30
2011,10,12,11,49,13.30
2011,10,12,11,50,13.30
2011,10,12,11,51,13.30
2011,10,12,11,52,13.30
2011,10,12,11,53,13.30
2011,10,12,11,54,13.30
2011,10,12,11,55,13.30
2011,10,12,11,56,13.30
2011,10,12,11,57,13.30
2011,10,12,11,58,13.30
2011,10,12,11,59,13.30
2011,10,12,12,00,13.40
2011,10,12,12,01,13.40
2011,10,12,12,02,13.40
2011,10,12,12,03,13.40
2011,10,12,12,04,13.40
2011,10,12,12,05,13.30
2011,10,12,12,06,13.30
2011,10,12,12,07,13.30
2011,10,12,12,08,13.30
2011,10,12,12,09,13.20
2011,10,12,12,10,13.20
2011,10,12,12,11,13.20
2011,10,12,12,12,13.20
2011,10,12,12,13,13.10
2011,10,12,12,14,13.10
2011,10,12,12,15,13.10
2011,10,12,12,16,13.10
2011,10,12,12,17,13.10
2011,10,12,12,18,13.20
2011,10,12,12,19,13.20
2011,10,12,12,20,13.30
2011,10,12,12,21,13.40
2011,10,12,12,22,13.40
2011,10,12,12,23,13.50
2011,10,12,12,24,13.50
2011,10,12,12,25,13.50
2011,10,12,12,26,13.50
2011,10,12,12,27,13.50
2011,10,12,12,28,13.50
2011,10,12,12,29,13.50
2011,10,12,12,30,13.50
2011,10,12,12,31,13.50
2011,10,12,12,32,13.50
2011,10,12,12,33,13.50
2011,10,12,12,34,13.40
2011,10,12,12,35,13.40
2011,10,12,12,36,13.40
2011,10,12,12,37,13.40
2011,10,12,12,38,13.40
2011,10,12,12,39,13.50
2011,10,12,12,40,13.50
2011,10,12,12,41,13.60
2011,10,12,12,42,13.60
2011,10,12,12,43,13.60
2011,10,12,12,44,13.60
2011,10,12,12,45,13.60
2011,10,12,12,46,13.70
2011,10,12,12,47,13.70
2011,10,12,12,48,13.70
2011,10,12,12,49,13.70
2011,10,12,12,50,13.70
2011,10,12,12,51,13.60
2011,10,12,12,52,13.60
2011,10,12,12,53,13.60
2011,10,12,12,54,13.70
2011,10,12,12,55,13.70
2011,10,12,12,56,13.70
2011,10,12,12,57,13.70
2011,10,12,12,58,13.70
2011,10,12,12,59,13.70
2011,10,12,13,00,13.80
2011,10,12,13,01,13.80
2011,10,12,13,02,13.80
2011,10,12,13,03,13.70
2011,10,12,13,04,13.70
2011,10,12,13,05,13.60
2011,10,12,13,06,13.50
2011,10,12,13,07,13.50
2011,10,12,13,08,13.50
2011,10,12,13,09,13.50
2011,10,12,13,10,13.50
2011,10,12,13,11,13.50
2011,10,12,13,12,13.40
2011,10,12,13,13,13.40
2011,10,12,13,14,13.40
2011,10,12,13,15,13.40
2011,10,12,13,16,13.40
2011,10,12,13,17,13.40
2011,10,12,13,18,13.40
2011,10,12,13,19,13.40
2011,10,12,13,20,13.50
2011,10,12,13,21,13.60
2011,10,12,13,22,13.70
2011,10,12,13,23,13.70
2011,10,12,13,24,13.70
2011,10,12,13,25,13.80
2011,10,12,13,26,13.90
2011,10,12,13,27,14.00
2011,10,12,13,28,14.10
2011,10,12,13,29,14.10
2011,10,12,13,30,14.10
2011,10,12,13,31,14.10
2011,10,12,13,32,14.10
2011,10,12,13,33,14.10
2011,10,12,13,34,14.10
2011,10,12,13,35,14.10
2011,10,12,13,36,14.10
2011,10,12,13,37,14.10
2011,10,12,13,38,14.10
2011,10,12,13,39,14.10
2011,10,12,13,40,14.10
2011,10,12,13,41,14.10
2011,10,12,14,14,9.10
2011,10,12,14,15,9.10
2011,10,12,14,16,9.20
2011,10,12,14,17,9.20
2011,10,12,14,18,9.30
2011,10,12,14,19,9.30
2011,10,12,14,20,9.40
2011,10,12,14,21,9.50
2011,10,12,14,22,9.50
2011,10,12,14,23,9.60
2011,10,12,14,24,9.60
2011,10,12,14,25,9.70
2011,10,12,14,26,9.70
2011,10,12,14,27,9.80
2011,10,12,14,28,9.80
2011,10,12,14,29,9.80
2011,10,12,14,30,9.80
2011,10,12,14,31,9.80
2011,10,12,14,32,9.80
2011,10,12,14,33,9.80
2011,10,12,14,34,9.80
2011,10,12,14,35,9.80
2011,10,12,14,36,9.80
2011,10,12,14,37,9.80
2011,10,12,14,38,9.80
2011,10,12,14,39,9.80
2011,10,12,14,40,9.80
2011,10,12,14,41,9.80
2011,10,12,14,42,9.80
2011,10,12,14,43,9.90
2011,10,12,14,44,9.90
2011,10,12,14,45,9.90
2011,10,12,14,46,10.00
2011,10,12,14,47,10.00
2011,10,12,14,48,9.90
2011,10,12,14,49,9.90
2011,10,12,14,50,9.90
2011,10,12,14,51,9.90
2011,10,12,14,52,10.00
2011,10,12,14,53,10.00
2011,10,12,14,54,10.00
2011,10,12,14,55,10.00
2011,10,12,14,56,9.90
2011,10,12,14,57,9.90
2011,10,12,14,58,9.80
2011,10,12,14,59,9.80
2011,10,12,15,00,9.80
2011,10,12,15,01,9.80
2011,10,12,15,02,9.80
2011,10,12,15,03,9.80
2011,10,12,15,04,9.80
2011,10,12,15,05,9.80
2011,10,12,15,06,9.80
2011,10,12,15,07,9.80
2011,10,12,15,08,9.80
2011,10,12,15,09,9.90
2011,10,12,15,10,9.90
2011,10,12,15,11,10.00
2011,10,12,15,12,10.10
2011,10,12,15,13,10.10
2011,10,12,15,14,10.10
2011,10,12,15,15,10.10
2011,10,12,15,16,10.10
2011,10,12,15,17,10.10
2011,10,12,15,18,10.10
2011,10,12,15,19,10.10
2011,10,12,15,20,10.20
2011,10,12,15,21,10.20
2011,10,12,15,22,10.20
2011,10,12,15,23,10.20
2011,10,12,15,24,10.20
2011,10,12,15,25,10.20
2011,10,12,15,26,10.30
2011,10,12,15,27,10.30
2011,10,12,15,28,10.30
2011,10,12,15,29,10.30
2011,10,12,15,30,10.40
2011,10,12,15,31,10.40
2011,10,12,15,32,10.40
2011,10,12,15,33,10.40
2011,10,12,15,34,10.30
2011,10,12,15,35,10.30
2011,10,12,15,36,10.40
2011,10,12,15,37,10.40
2011,10,12,15,38,10.40
2011,10,12,15,39,10.40
2011,10,12,15,40,10.40
2011,10,12,15,41,10.30
2011,10,12,15,42,10.40
2011,10,12,15,43,10.40
2011,10,12,15,44,10.40
2011,10,12,15,45,10.40
2011,10,12,15,46,10.30
2011,10,12,15,47,10.30
2011,10,12,15,48,10.40
2011,10,12,15,49,10.40
2011,10,12,15,50,10.40
2011,10,12,15,51,10.40
2011,10,12,15,52,10.40
2011,10,12,15,53,10.40
2011,10,12,15,54,10.40
2011,10,12,15,55,10.50
2011,10,12,15,56,10.50
2011,10,12,15,57,10.50
2011,10,12,15,58,10.50
2011,10,12,15,59,10.50
2011,10,12,16,00,10.50
2011,10,12,16,01,10.50
2011,10,12,16,02,10.60
2011,10,12,16,03,10.60
2011,10,12,16,04,10.60
2011,10,12,16,05,10.70
2011,10,12,16,06,10.80
2011,10,12,16,07,10.90
2011,10,12,16,08,11.00
2011,10,12,16,09,11.00
2011,10,12,16,10,11.10
2011,10,12,16,11,11.20
2011,10,12,16,12,11.20
2011,10,12,16,13,11.40
2011,10,12,16,14,11.40
2011,10,12,16,15,11.50
2011,10,12,16,16,11.60
2011,10,12,16,17,11.60
2011,10,12,16,18,11.70
2011,10,12,16,19,11.80
2011,10,12,16,20,11.90
2011,10,12,16,21,12.00
2011,10,12,16,22,12.00
2011,10,12,16,23,12.00
2011,10,12,16,24,12.10
2011,10,12,16,25,12.10
2011,10,12,16,26,12.10
2011,10,12,16,27,12.10
2011,10,12,16,28,12.10
2011,10,12,16,29,12.10
2011,10,12,16,30,12.10
2011,10,12,16,31,12.10
2011,10,12,16,32,12.10
2011,10,12,16,33,12.10
2011,10,12,16,34,12.10
2011,10,12,16,35,12.10
2011,10,12,16,36,12.10
2011,10,12,16,37,12.20
2011,10,12,16,38,12.20
2011,10,12,16,39,12.30
2011,10,12,16,40,12.40
2011,10,12,16,41,12.40
2011,10,12,16,42,12.50
2011,10,12,16,43,12.60
2011,10,12,16,44,12.60
2011,10,12,16,45,12.70
2011,10,12,16,46,12.80
2011,10,12,16,47,12.80
2011,10,12,16,48,12.80
2011,10,12,16,49,12.80
2011,10,12,16,50,12.70
2011,10,12,16,51,12.70
2011,10,12,16,52,12.60
2011,10,12,16,53,12.50
2011,10,12,16,54,12.50
2011,10,12,16,55,12.40
2011,10,12,16,56,12.40
2011,10,12,16,57,12.30
2011,10,12,16,58,12.20
2011,10,12,16,59,12.10
2011,10,12,17,00,12.10
2011,10,12,17,01,12.00
2011,10,12,17,02,11.90
2011,10,12,17,03,11.90
2011,10,12,17,04,11.90
2011,10,12,17,05,11.90
2011,10,12,17,06,12.00
2011,10,12,17,07,12.00
2011,10,12,17,08,12.10
2011,10,12,17,09,12.10
2011,10,12,17,10,12.10
2011,10,12,17,11,12.10
2011,10,12,17,12,12.10
2011,10,12,17,13,12.10
2011,10,12,17,14,12.20
2011,10,12,17,15,12.20
2011,10,12,17,16,12.20
2011,10,12,17,17,12.20
2011,10,12,17,18,12.20
2011,10,12,17,19,12.20
2011,10,12,17,20,12.20
2011,10,12,17,21,12.20
2011,10,12,17,22,12.20
2011,10,12,17,23,12.20
2011,10,12,17,24,12.20
2011,10,12,17,25,12.20
2011,10,12,17,26,12.20
2011,10,12,17,27,12.20
2011,10,12,17,28,12.10
2011,10,12,17,29,12.10
2011,10,12,17,30,12.10
2011,10,12,17,31,12.10
2011,10,12,17,32,12.00
2011,10,12,17,33,12.00
2011,10,12,17,34,11.90
2011,10,12,17,35,11.90
2011,10,12,17,36,11.80
2011,10,12,17,37,11.80
2011,10,12,17,38,11.80
2011,10,12,17,39,11.80
2011,10,12,17,40,11.70
2011,10,12,17,41,11.70
2011,10,12,17,42,11.70
2011,10,12,17,43,11.70
2011,10,12,17,44,11.60
2011,10,12,17,45,11.60
2011,10,12,17,46,11.60
2011,10,12,17,47,11.50
2011,10,12,17,48,11.40
2011,10,12,17,49,11.40
2011,10,12,17,50,11.30
2011,10,12,17,51,11.30
2011,10,12,17,52,11.20
2011,10,12,17,53,11.20
2011,10,12,17,54,11.10
2011,10,12,17,55,11.10
2011,10,12,17,56,11.10
2011,10,12,17,57,11.00
2011,10,12,17,58,11.00
2011,10,12,17,59,10.90
2011,10,12,18,00,10.80
2011,10,12,18,01,10.70
2011,10,12,18,02,10.70
2011,10,12,18,03,10.70
2011,10,12,18,04,10.60
2011,10,12,18,05,10.60
2011,10,12,18,06,10.50
2011,10,12,18,07,10.50
2011,10,12,18,08,10.40
2011,10,12,18,09,10.40
2011,10,12,18,10,10.30
2011,10,12,18,11,10.30
2011,10,12,18,12,10.20
2011,10,12,18,13,10.20
2011,10,12,18,14,10.20
2011,10,12,18,15,10.10
2011,10,12,18,16,10.00
2011,10,12,18,17,10.00
2011,10,12,18,18,9.90
2011,10,12,18,19,9.90
2011,10,12,18,20,9.80
2011,10,12,18,21,9.80
2011,10,12,18,22,9.80
2011,10,12,18,23,9.80
2011,10,12,18,24,9.80
2011,10,12,18,25,9.80
2011,10,12,18,26,9.80
2011,10,12,18,27,9.80
2011,10,12,18,28,9.80
2011,10,12,18,29,9.80
